Time,TemperatureF,DewpointF,PressureIn,WindDirection,WindDirectionDegrees,WindSpeedMPH,WindSpeedGustMPH,Humidity,HourlyPrecipIn,Conditions,Clouds,dailyrainin,SoftwareType,DateUTC
2013-07-29 00:02:00,84.6,28.2,29.82,WNW,297,5.0,8.3,13,0.00,,,-99.99,FreeWX-Wi 1.02,2013-07-29 07:02:00,
2013-07-29 00:07:00,84.2,28.0,29.82,WNW,297,5.0,10.1,13,0.00,,,-99.99,FreeWX-Wi 1.02,2013-07-29 07:07:00,
2013-07-29 00:12:00,84.6,28.2,29.82,WNW,299,5.0,9.6,13,0.00,,,-99.99,FreeWX-Wi 1.02,2013-07-29 07:12:00,
2013-07-29 00:17:00,84.4,28.2,29.82,WNW,302,5.0,7.6,13,0.00,,,-99.99,FreeWX-Wi 1.02,2013-07-29 07:17:00,
2013-07-29 00:22:00,83.7,29.5,29.82,WNW,298,4.0,10.1,14,0.00,,,-99.99,FreeWX-Wi 1.02,2013-07-29 07:22:00,
2013-07-29 00:27:00,83.3,29.1,29.82,WNW,296,4.0,8.3,14,0.00,,,-99.99,FreeWX-Wi 1.02,2013-07-29 07:27:00,
2013-07-29 00:32:00,83.1,28.9,29.82,WNW,295,4.0,10.5,14,0.00,,,-99.99,FreeWX-Wi 1.02,2013-07-29 07:32:00,
2013-07-29 00:37:00,82.9,28.8,29.82,WNW,291,4.0,10.1,14,0.00,,,-99.99,FreeWX-Wi 1.02,2013-07-29 07:37:00,
2013-07-29 00:42:00,82.6,28.6,29.82,WNW,286,4.0,9.6,14,0.00,,,-99.99,FreeWX-Wi 1.02,2013-07-29 07:42:00,
2013-07-29 00:47:00,83.1,28.9,29.82,West,279,5.0,11.0,14,0.00,,,-99.99,FreeWX-Wi 1.02,2013-07-29 07:47:00,
2013-07-29 00:52:00,82.9,28.8,29.82,West,277,5.0,8.3,14,0.00,,,-99.99,FreeWX-Wi 1.02,2013-07-29 07:52:00,
2013-07-29 00:57:00,82.8,28.8,29.82,West,276,5.0,8.7,14,0.00,,,-99.99,FreeWX-Wi 1.02,2013-07-29 07:57:00,
2013-07-29 01:02:00,82.8,28.8,29.82,West,275,5.0,8.7,14,0.00,,,-99.99,FreeWX-Wi 1.02,2013-07-29 08:02:00,
2013-07-29 01:07:00,82.2,28.2,29.82,West,273,5.0,9.2,14,0.00,,,-99.99,FreeWX-Wi 1.02,2013-07-29 08:07:00,
2013-07-29 01:12:00,81.0,27.3,29.82,West,271,5.0,11.0,14,0.00,,,-99.99,FreeWX-Wi 1.02,2013-07-29 08:12:00,
2013-07-29 01:17:00,79.5,27.9,29.82,West,268,5.0,8.1,15,0.00,,,-99.99,FreeWX-Wi 1.02,2013-07-29 08:17:00,
2013-07-29 01:22:00,79.0,27.3,29.82,West,265,5.0,7.6,15,0.00,,,-99.99,FreeWX-Wi 1.02,2013-07-29 08:22:00,
2013-07-29 01:27:00,78.6,27.1,29.82,West,263,5.0,8.1,15,0.00,,,-99.99,FreeWX-Wi 1.02,2013-07-29 08:27:00,
2013-07-29 01:32:00,78.1,26.6,29.82,West,259,5.0,6.3,15,0.00,,,-99.99,FreeWX-Wi 1.02,2013-07-29 08:32:00,
2013-07-29 01:37:00,77.5,26.2,29.82,West,259,4.0,6.3,15,0.00,,,-99.99,FreeWX-Wi 1.02,2013-07-29 08:37:00,
2013-07-29 01:42:00,77.2,25.9,29.82,West,260,4.0,5.4,15,0.00,,,-99.99,FreeWX-Wi 1.02,2013-07-29 08:42:00,
2013-07-29 01:47:00,76.6,25.5,29.82,West,260,3.0,4.9,15,0.00,,,-99.99,FreeWX-Wi 1.02,2013-07-29 08:47:00,
2013-07-29 01:52:00,76.3,25.2,29.82,WSW,258,3.0,3.1,15,0.00,,,-99.99,FreeWX-Wi 1.02,2013-07-29 08:52:00,
2013-07-29 01:57:00,75.9,25.0,29.82,West,260,2.0,3.6,15,0.00,,,-99.99,FreeWX-Wi 1.02,2013-07-29 08:57:00,
2013-07-29 02:02:00,76.1,25.2,29.82,West,261,1.0,3.1,15,0.00,,,-99.99,FreeWX-Wi 1.02,2013-07-29 09:02:00,
2013-07-29 02:07:00,75.9,25.0,29.82,North,-999,0.0,2.7,15,0.00,,,-99.99,FreeWX-Wi 1.02,2013-07-29 09:07:00,
2013-07-29 02:12:00,75.6,24.6,29.82,North,-999,0.0,0.0,15,0.00,,,-99.99,FreeWX-Wi 1.02,2013-07-29 09:12:00,
2013-07-29 02:17:00,75.2,24.4,29.82,North,-999,0.0,4.0,15,0.00,,,-99.99,FreeWX-Wi 1.02,2013-07-29 09:17:00,
2013-07-29 02:22:00,75.2,24.4,29.82,North,-999,0.0,6.3,15,0.00,,,-99.99,FreeWX-Wi 1.02,2013-07-29 09:22:00,
2013-07-29 02:27:00,75.2,24.4,29.82,West,262,1.0,5.4,15,0.00,,,-99.99,FreeWX-Wi 1.02,2013-07-29 09:27:00,
2013-07-29 02:32:00,74.8,25.7,29.82,West,260,1.0,3.1,16,0.00,,,-99.99,FreeWX-Wi 1.02,2013-07-29 09:32:00,
2013-07-29 02:37:00,74.8,25.7,29.82,West,259,1.0,3.6,16,0.00,,,-99.99,FreeWX-Wi 1.02,2013-07-29 09:37:00,
2013-07-29 02:42:00,74.7,25.5,29.82,WSW,258,1.0,3.1,16,0.00,,,-99.99,FreeWX-Wi 1.02,2013-07-29 09:42:00,
2013-07-29 02:47:00,74.3,25.2,29.82,WSW,257,1.0,0.0,16,0.00,,,-99.99,FreeWX-Wi 1.02,2013-07-29 09:47:00,
2013-07-29 02:52:00,73.8,24.8,29.82,North,-999,0.0,0.0,16,0.00,,,-99.99,FreeWX-Wi 1.02,2013-07-29 09:52:00,
2013-07-29 02:57:00,73.6,24.6,29.82,North,-999,0.0,0.0,16,0.00,,,-99.99,FreeWX-Wi 1.02,2013-07-29 09:57:00,
2013-07-29 03:02:00,73.2,24.3,29.82,North,-999,0.0,0.0,16,0.00,,,-99.99,FreeWX-Wi 1.02,2013-07-29 10:02:00,
2013-07-29 03:12:00,73.2,24.3,29.82,North,-999,0.0,3.1,16,0.00,,,-99.99,FreeWX-Wi 1.02,2013-07-29 10:12:00,
2013-07-29 03:17:00,73.0,24.3,29.82,North,-999,0.0,0.0,16,0.00,,,-99.99,FreeWX-Wi 1.02,2013-07-29 10:17:00,
2013-07-29 03:28:00,73.0,24.3,29.82,North,-999,0.0,3.6,16,0.00,,,-99.99,FreeWX-Wi 1.02,2013-07-29 10:28:00,
2013-07-29 03:33:00,72.9,24.1,29.82,North,-999,0.0,0.0,16,0.00,,,-99.99,FreeWX-Wi 1.02,2013-07-29 10:33:00,
2013-07-29 03:43:00,72.1,23.5,29.82,North,-999,0.0,0.0,16,0.00,,,-99.99,FreeWX-Wi 1.02,2013-07-29 10:43:00,
2013-07-29 03:48:00,72.0,23.4,29.82,North,-999,0.0,0.0,16,0.00,,,-99.99,FreeWX-Wi 1.02,2013-07-29 10:48:00,
2013-07-29 03:53:00,71.6,23.0,29.82,North,-999,0.0,0.0,16,0.00,,,-99.99,FreeWX-Wi 1.02,2013-07-29 10:53:00,
2013-07-29 03:58:00,71.4,24.3,29.82,North,-999,0.0,0.0,17,0.00,,,-99.99,FreeWX-Wi 1.02,2013-07-29 10:58:00,
2013-07-29 04:08:00,71.2,24.3,29.82,North,-999,0.0,0.0,17,0.00,,,-99.99,FreeWX-Wi 1.02,2013-07-29 11:08:00,
2013-07-29 04:13:00,70.9,23.9,29.82,North,-999,0.0,0.0,17,0.00,,,-99.99,FreeWX-Wi 1.02,2013-07-29 11:13:00,
2013-07-29 04:18:00,70.9,23.9,29.82,North,-999,0.0,0.0,17,0.00,,,-99.99,FreeWX-Wi 1.02,2013-07-29 11:18:00,
2013-07-29 04:23:00,70.9,23.9,29.82,North,-999,0.0,0.0,17,0.00,,,-99.99,FreeWX-Wi 1.02,2013-07-29 11:23:00,
2013-07-29 04:28:00,70.7,23.7,29.82,North,-999,0.0,0.0,17,0.00,,,-99.99,FreeWX-Wi 1.02,2013-07-29 11:28:00,
2013-07-29 04:33:00,70.7,23.7,29.82,North,-999,0.0,0.0,17,0.00,,,-99.99,FreeWX-Wi 1.02,2013-07-29 11:33:00,
2013-07-29 04:44:00,70.3,23.5,29.82,North,-999,0.0,0.0,17,0.00,,,-99.99,FreeWX-Wi 1.02,2013-07-29 11:44:00,
2013-07-29 04:49:00,70.7,23.7,29.82,North,-999,0.0,2.7,17,0.00,,,-99.99,FreeWX-Wi 1.02,2013-07-29 11:49:00,
2013-07-29 04:54:00,70.5,23.5,29.82,North,-999,0.0,0.0,17,0.00,,,-99.99,FreeWX-Wi 1.02,2013-07-29 11:54:00,
2013-07-29 04:59:00,70.2,23.4,29.82,North,-999,0.0,0.0,17,0.00,,,-99.99,FreeWX-Wi 1.02,2013-07-29 11:59:00,
2013-07-29 05:04:00,70.0,23.2,29.82,North,-999,0.0,0.0,17,0.00,,,-99.99,FreeWX-Wi 1.02,2013-07-29 12:04:00,
2013-07-29 05:14:00,70.0,23.2,29.82,North,-999,0.0,2.7,17,0.00,,,-99.99,FreeWX-Wi 1.02,2013-07-29 12:14:00,
2013-07-29 05:19:00,70.0,23.2,29.85,North,-999,0.0,3.1,17,0.00,,,-99.99,FreeWX-Wi 1.02,2013-07-29 12:19:00,
2013-07-29 05:24:00,70.0,23.2,29.85,North,-999,0.0,4.0,17,0.00,,,-99.99,FreeWX-Wi 1.02,2013-07-29 12:24:00,
2013-07-29 05:29:00,70.0,23.2,29.85,North,-999,0.0,2.7,17,0.00,,,-99.99,FreeWX-Wi 1.02,2013-07-29 12:29:00,
2013-07-29 05:34:00,69.8,23.0,29.85,West,260,1.0,3.1,17,0.00,,,-99.99,FreeWX-Wi 1.02,2013-07-29 12:34:00,
2013-07-29 05:39:00,69.8,23.0,29.85,West,259,1.0,4.0,17,0.00,,,-99.99,FreeWX-Wi 1.02,2013-07-29 12:39:00,
2013-07-29 05:44:00,70.0,23.2,29.85,WSW,256,1.0,3.6,17,0.00,,,-99.99,FreeWX-Wi 1.02,2013-07-29 12:44:00,
2013-07-29 05:49:00,70.3,23.5,29.85,WSW,253,1.0,0.0,17,0.00,,,-99.99,FreeWX-Wi 1.02,2013-07-29 12:49:00,
2013-07-29 05:54:00,70.3,23.5,29.85,WSW,249,1.0,0.0,17,0.00,,,-99.99,FreeWX-Wi 1.02,2013-07-29 12:54:00,
2013-07-29 06:04:00,70.5,23.5,29.85,SW,219,1.0,2.7,17,0.00,,,-99.99,FreeWX-Wi 1.02,2013-07-29 13:04:00,
2013-07-29 06:15:00,70.3,23.5,29.85,North,-999,0.0,4.0,17,0.00,,,-99.99,FreeWX-Wi 1.02,2013-07-29 13:15:00,
2013-07-29 06:20:00,70.3,23.5,29.85,North,-999,0.0,3.1,17,0.00,,,-99.99,FreeWX-Wi 1.02,2013-07-29 13:20:00,
2013-07-29 06:25:00,70.5,23.5,29.85,North,-999,0.0,2.7,17,0.00,,,-99.99,FreeWX-Wi 1.02,2013-07-29 13:25:00,
2013-07-29 06:30:00,70.5,23.5,29.85,North,-999,0.0,2.7,17,0.00,,,-99.99,FreeWX-Wi 1.02,2013-07-29 13:30:00,
2013-07-29 06:35:00,70.7,23.7,29.85,North,-999,0.0,3.6,17,0.00,,,-99.99,FreeWX-Wi 1.02,2013-07-29 13:35:00,
2013-07-29 06:40:00,70.7,23.7,29.85,North,-999,0.0,4.0,17,0.00,,,-99.99,FreeWX-Wi 1.02,2013-07-29 13:40:00,
2013-07-29 06:51:00,71.1,24.1,29.88,North,-999,0.0,2.2,17,0.00,,,-99.99,FreeWX-Wi 1.02,2013-07-29 13:51:00,
2013-07-29 06:56:00,71.1,24.1,29.88,North,-999,0.0,2.7,17,0.00,,,-99.99,FreeWX-Wi 1.02,2013-07-29 13:56:00,
2013-07-29 07:01:00,72.0,23.4,29.88,North,-999,0.0,0.0,16,0.00,,,-99.99,FreeWX-Wi 1.02,2013-07-29 14:01:00,
2013-07-29 07:06:00,73.0,24.3,29.88,North,-999,0.0,2.2,16,0.00,,,-99.99,FreeWX-Wi 1.02,2013-07-29 14:06:00,
2013-07-29 07:11:00,73.8,24.8,29.88,North,-999,0.0,0.0,16,0.00,,,-99.99,FreeWX-Wi 1.02,2013-07-29 14:11:00,
2013-07-29 07:16:00,74.8,25.7,29.88,North,-999,0.0,0.0,16,0.00,,,-99.99,FreeWX-Wi 1.02,2013-07-29 14:16:00,
2013-07-29 07:21:00,75.4,24.4,29.88,North,-999,0.0,0.0,15,0.00,,,-99.99,FreeWX-Wi 1.02,2013-07-29 14:21:00,
2013-07-29 07:26:00,76.3,25.2,29.88,North,-999,0.0,0.0,15,0.00,,,-99.99,FreeWX-Wi 1.02,2013-07-29 14:26:00,
2013-07-29 07:31:00,77.2,25.9,29.88,North,-999,0.0,0.0,15,0.00,,,-99.99,FreeWX-Wi 1.02,2013-07-29 14:31:00,
2013-07-29 07:36:00,77.9,26.6,29.88,North,-999,0.0,0.0,15,0.00,,,-99.99,FreeWX-Wi 1.02,2013-07-29 14:36:00,
2013-07-29 07:41:00,78.4,27.0,29.88,North,-999,0.0,0.0,15,0.00,,,-99.99,FreeWX-Wi 1.02,2013-07-29 14:41:00,
2013-07-29 07:46:00,79.2,27.5,29.88,North,-999,0.0,0.0,15,0.00,,,-99.99,FreeWX-Wi 1.02,2013-07-29 14:46:00,
2013-07-29 07:51:00,80.2,28.4,29.88,North,-999,0.0,0.0,15,0.00,,,-99.99,FreeWX-Wi 1.02,2013-07-29 14:51:00,
2013-07-29 07:56:00,81.1,27.5,29.88,North,-999,0.0,0.0,14,0.00,,,-99.99,FreeWX-Wi 1.02,2013-07-29 14:56:00,
2013-07-29 08:01:00,81.9,28.0,29.88,North,-999,0.0,2.2,14,0.00,,,-99.99,FreeWX-Wi 1.02,2013-07-29 15:01:00,
2013-07-29 08:11:00,84.0,29.7,29.88,North,-999,0.0,0.0,14,0.00,,,-99.99,FreeWX-Wi 1.02,2013-07-29 15:11:00,
2013-07-29 08:16:00,85.3,28.9,29.88,North,-999,0.0,0.0,13,0.00,,,-99.99,FreeWX-Wi 1.02,2013-07-29 15:16:00,
2013-07-29 08:26:00,86.5,29.8,29.88,North,-999,0.0,0.0,13,0.00,,,-99.99,FreeWX-Wi 1.02,2013-07-29 15:26:00,
2013-07-29 08:37:00,87.3,30.4,29.91,North,-999,0.0,2.7,13,0.00,,,-99.99,FreeWX-Wi 1.02,2013-07-29 15:37:00,
2013-07-29 08:42:00,87.3,30.4,29.91,North,-999,0.0,3.1,13,0.00,,,-99.99,FreeWX-Wi 1.02,2013-07-29 15:42:00,
2013-07-29 08:47:00,88.0,30.9,29.91,North,-999,0.0,3.6,13,0.00,,,-99.99,FreeWX-Wi 1.02,2013-07-29 15:47:00,
2013-07-29 08:52:00,88.5,31.5,29.91,North,-999,0.0,3.6,13,0.00,,,-99.99,FreeWX-Wi 1.02,2013-07-29 15:52:00,
2013-07-29 08:57:00,89.4,32.0,29.91,North,-999,0.0,4.5,13,0.00,,,-99.99,FreeWX-Wi 1.02,2013-07-29 15:57:00,
2013-07-29 09:02:00,89.4,32.0,29.91,SE,131,1.0,4.0,13,0.00,,,-99.99,FreeWX-Wi 1.02,2013-07-29 16:02:00,
2013-07-29 09:07:00,90.1,30.7,29.91,SSE,149,1.0,3.6,12,0.00,,,-99.99,FreeWX-Wi 1.02,2013-07-29 16:07:00,
2013-07-29 09:12:00,91.2,31.5,29.91,SSE,167,1.0,3.6,12,0.00,,,-99.99,FreeWX-Wi 1.02,2013-07-29 16:12:00,
2013-07-29 09:17:00,91.8,31.8,29.91,North,-999,0.0,3.1,12,0.00,,,-99.99,FreeWX-Wi 1.02,2013-07-29 16:17:00,
2013-07-29 09:22:00,92.3,32.4,29.91,SSW,201,1.0,6.3,12,0.00,,,-99.99,FreeWX-Wi 1.02,2013-07-29 16:22:00,
2013-07-29 09:32:00,94.5,31.8,29.91,SW,232,3.0,11.0,11,0.00,,,-99.99,FreeWX-Wi 1.02,2013-07-29 16:32:00,
2013-07-29 09:37:00,95.4,38.7,29.91,WSW,244,4.0,11.9,14,0.00,,,-99.99,FreeWX-Wi 1.02,2013-07-29 16:37:00,
2013-07-29 09:42:00,95.9,39.0,29.91,WSW,254,5.0,12.3,14,0.00,,,-99.99,FreeWX-Wi 1.02,2013-07-29 16:42:00,
2013-07-29 09:47:00,96.6,39.6,29.91,West,262,6.0,11.0,14,0.00,,,-99.99,FreeWX-Wi 1.02,2013-07-29 16:47:00,
2013-07-29 09:52:00,97.0,37.9,29.91,West,263,7.0,17.4,13,0.00,,,-99.99,FreeWX-Wi 1.02,2013-07-29 16:52:00,
2013-07-29 09:57:00,97.5,38.3,29.91,West,261,7.0,13.2,13,0.00,,,-99.99,FreeWX-Wi 1.02,2013-07-29 16:57:00,
2013-07-29 10:02:00,97.9,38.7,29.91,West,262,8.0,13.2,13,0.00,,,-99.99,FreeWX-Wi 1.02,2013-07-29 17:02:00,
2013-07-29 10:08:00,98.1,38.8,29.91,West,261,8.0,15.0,13,0.00,,,-99.99,FreeWX-Wi 1.02,2013-07-29 17:08:00,
2013-07-29 10:12:00,98.6,39.2,29.91,West,260,8.0,11.0,13,0.00,,,-99.99,FreeWX-Wi 1.02,2013-07-29 17:12:00,
2013-07-29 10:17:00,99.0,39.6,29.91,West,261,9.0,14.5,13,0.00,,,-99.99,FreeWX-Wi 1.02,2013-07-29 17:17:00,
2013-07-29 10:22:00,99.3,39.7,29.91,West,264,8.0,14.1,13,0.00,,,-99.99,FreeWX-Wi 1.02,2013-07-29 17:22:00,
2013-07-29 10:28:00,99.7,40.1,29.91,West,265,7.0,8.1,13,0.00,,,-99.99,FreeWX-Wi 1.02,2013-07-29 17:28:00,
2013-07-29 10:33:00,100.0,40.3,29.91,West,265,7.0,8.7,13,0.00,,,-99.99,FreeWX-Wi 1.02,2013-07-29 17:33:00,
2013-07-29 10:38:00,100.8,38.8,29.91,West,263,7.0,12.3,12,0.00,,,-99.99,FreeWX-Wi 1.02,2013-07-29 17:38:00,
2013-07-29 10:43:00,101.1,39.0,29.91,West,264,6.0,12.3,12,0.00,,,-99.99,FreeWX-Wi 1.02,2013-07-29 17:43:00,
2013-07-29 10:48:00,101.7,39.6,29.91,West,262,6.0,15.4,12,0.00,,,-99.99,FreeWX-Wi 1.02,2013-07-29 17:48:00,
2013-07-29 10:53:00,101.7,39.6,29.91,West,260,7.0,15.4,12,0.00,,,-99.99,FreeWX-Wi 1.02,2013-07-29 17:53:00,
2013-07-29 11:03:00,102.6,40.3,29.91,West,259,9.0,17.4,12,0.00,,,-99.99,FreeWX-Wi 1.02,2013-07-29 18:03:00,
2013-07-29 11:08:00,102.9,40.5,29.91,West,261,9.0,12.3,12,0.00,,,-99.99,FreeWX-Wi 1.02,2013-07-29 18:08:00,
2013-07-29 11:13:00,102.7,40.3,29.91,West,261,10.0,15.4,12,0.00,,,-99.99,FreeWX-Wi 1.02,2013-07-29 18:13:00,
2013-07-29 11:18:00,102.7,40.3,29.88,West,261,10.0,17.9,12,0.00,,,-99.99,FreeWX-Wi 1.02,2013-07-29 18:18:00,
2013-07-29 11:23:00,103.3,40.8,29.88,West,260,10.0,15.0,12,0.00,,,-99.99,FreeWX-Wi 1.02,2013-07-29 18:23:00,
2013-07-29 11:28:00,103.5,40.8,29.88,West,260,10.0,15.9,12,0.00,,,-99.99,FreeWX-Wi 1.02,2013-07-29 18:28:00,
2013-07-29 11:33:00,103.8,41.2,29.91,West,259,10.0,15.0,12,0.00,,,-99.99,FreeWX-Wi 1.02,2013-07-29 18:33:00,
2013-07-29 11:38:00,104.2,41.4,29.91,WSW,258,10.0,15.0,12,0.00,,,-99.99,FreeWX-Wi 1.02,2013-07-29 18:38:00,
2013-07-29 11:43:00,103.5,40.8,29.91,WSW,257,10.0,15.0,12,0.00,,,-99.99,FreeWX-Wi 1.02,2013-07-29 18:43:00,
2013-07-29 11:48:00,103.5,40.8,29.91,WSW,255,10.0,15.4,12,0.00,,,-99.99,FreeWX-Wi 1.02,2013-07-29 18:48:00,
2013-07-29 11:53:00,104.0,41.4,29.91,WSW,254,10.0,14.1,12,0.00,,,-99.99,FreeWX-Wi 1.02,2013-07-29 18:53:00,
2013-07-29 11:58:00,104.4,41.5,29.91,WSW,253,9.0,15.0,12,0.00,,,-99.99,FreeWX-Wi 1.02,2013-07-29 18:58:00,
2013-07-29 12:03:00,104.7,41.9,29.91,WSW,253,9.0,15.4,12,0.00,,,-99.99,FreeWX-Wi 1.02,2013-07-29 19:03:00,
2013-07-29 12:08:00,104.5,41.7,29.91,WSW,251,9.0,15.4,12,0.00,,,-99.99,FreeWX-Wi 1.02,2013-07-29 19:08:00,
2013-07-29 12:13:00,104.5,41.7,29.91,WSW,254,9.0,15.4,12,0.00,,,-99.99,FreeWX-Wi 1.02,2013-07-29 19:13:00,
2013-07-29 12:18:00,105.1,42.1,29.91,WSW,256,8.0,13.2,12,0.00,,,-99.99,FreeWX-Wi 1.02,2013-07-29 19:18:00,
2013-07-29 12:23:00,105.4,42.4,29.91,West,259,8.0,11.9,12,0.00,,,-99.99,FreeWX-Wi 1.02,2013-07-29 19:23:00,
2013-07-29 12:33:00,103.8,41.2,29.91,West,273,6.0,8.7,12,0.00,,,-99.99,FreeWX-Wi 1.02,2013-07-29 19:33:00,
2013-07-29 12:38:00,104.9,41.9,29.91,West,275,7.0,13.2,12,0.00,,,-99.99,FreeWX-Wi 1.02,2013-07-29 19:38:00,
2013-07-29 12:43:00,105.6,42.6,29.91,West,273,7.0,15.4,12,0.00,,,-99.99,FreeWX-Wi 1.02,2013-07-29 19:43:00,
2013-07-29 12:54:00,105.4,42.4,29.91,West,272,7.0,11.0,12,0.00,,,-99.99,FreeWX-Wi 1.02,2013-07-29 19:54:00,
2013-07-29 12:59:00,106.3,40.8,29.91,West,268,7.0,11.0,11,0.00,,,-99.99,FreeWX-Wi 1.02,2013-07-29 19:59:00,
2013-07-29 13:04:00,105.3,42.3,29.91,WSW,256,8.0,12.3,12,0.00,,,-99.99,FreeWX-Wi 1.02,2013-07-29 20:04:00,
2013-07-29 13:09:00,105.8,40.5,29.91,West,262,6.0,8.7,11,0.00,,,-99.99,FreeWX-Wi 1.02,2013-07-29 20:09:00,
2013-07-29 13:24:00,106.2,40.6,29.91,West,263,5.0,12.3,11,0.00,,,-99.99,FreeWX-Wi 1.02,2013-07-29 20:24:00,
2013-07-29 13:29:00,106.7,41.2,29.91,West,262,5.0,10.5,11,0.00,,,-99.99,FreeWX-Wi 1.02,2013-07-29 20:29:00,
2013-07-29 13:34:00,107.2,41.5,29.91,West,262,4.0,8.3,11,0.00,,,-99.99,FreeWX-Wi 1.02,2013-07-29 20:34:00,
2013-07-29 13:40:00,107.4,41.7,29.91,WSW,251,5.0,14.5,11,0.00,,,-99.99,FreeWX-Wi 1.02,2013-07-29 20:40:00,
2013-07-29 13:45:00,107.6,41.7,29.91,WSW,253,5.0,15.4,11,0.00,,,-99.99,FreeWX-Wi 1.02,2013-07-29 20:45:00,
2013-07-29 13:50:00,107.1,41.4,29.91,WSW,251,6.0,11.0,11,0.00,,,-99.99,FreeWX-Wi 1.02,2013-07-29 20:50:00,
2013-07-29 13:55:00,107.2,41.5,29.91,WSW,249,6.0,12.3,11,0.00,,,-99.99,FreeWX-Wi 1.02,2013-07-29 20:55:00,
2013-07-29 14:00:00,105.8,40.5,29.91,WSW,250,6.0,6.3,11,0.00,,,-99.99,FreeWX-Wi 1.02,2013-07-29 21:00:00,
2013-07-29 14:05:00,106.9,41.2,29.91,WSW,255,5.0,5.4,11,0.00,,,-99.99,FreeWX-Wi 1.02,2013-07-29 21:05:00,
2013-07-29 14:10:00,107.6,41.7,29.91,WSW,256,5.0,8.3,11,0.00,,,-99.99,FreeWX-Wi 1.02,2013-07-29 21:10:00,
2013-07-29 14:15:00,108.0,42.1,29.91,WSW,257,5.0,14.5,11,0.00,,,-99.99,FreeWX-Wi 1.02,2013-07-29 21:15:00,
2013-07-29 14:20:00,108.5,42.4,29.91,West,260,5.0,12.3,11,0.00,,,-99.99,FreeWX-Wi 1.02,2013-07-29 21:20:00,
2013-07-29 14:25:00,108.3,42.3,29.91,West,264,5.0,15.0,11,0.00,,,-99.99,FreeWX-Wi 1.02,2013-07-29 21:25:00,
2013-07-29 14:30:00,107.8,41.9,29.91,West,268,5.0,13.2,11,0.00,,,-99.99,FreeWX-Wi 1.02,2013-07-29 21:30:00,
2013-07-29 14:40:00,107.2,41.5,29.91,West,271,6.0,7.6,11,0.00,,,-99.99,FreeWX-Wi 1.02,2013-07-29 21:40:00,
2013-07-29 14:45:00,106.9,41.2,29.91,West,272,6.0,15.0,11,0.00,,,-99.99,FreeWX-Wi 1.02,2013-07-29 21:45:00,
2013-07-29 14:50:00,107.6,41.7,29.91,West,271,6.0,12.3,11,0.00,,,-99.99,FreeWX-Wi 1.02,2013-07-29 21:50:00,
2013-07-29 14:55:00,107.8,41.9,29.91,West,271,6.0,13.6,11,0.00,,,-99.99,FreeWX-Wi 1.02,2013-07-29 21:55:00,
2013-07-29 15:00:00,107.6,41.7,29.91,West,269,6.0,11.0,11,0.00,,,-99.99,FreeWX-Wi 1.02,2013-07-29 22:00:00,
2013-07-29 15:05:00,107.4,41.7,29.91,West,275,6.0,13.2,11,0.00,,,-99.99,FreeWX-Wi 1.02,2013-07-29 22:05:00,
2013-07-29 15:10:00,107.1,41.4,29.91,West,274,6.0,9.6,11,0.00,,,-99.99,FreeWX-Wi 1.02,2013-07-29 22:10:00,
2013-07-29 15:15:00,107.4,41.7,29.91,West,275,6.0,12.8,11,0.00,,,-99.99,FreeWX-Wi 1.02,2013-07-29 22:15:00,
2013-07-29 15:20:00,107.6,41.7,29.91,West,273,6.0,15.4,11,0.00,,,-99.99,FreeWX-Wi 1.02,2013-07-29 22:20:00,
2013-07-29 15:25:00,108.0,42.1,29.91,West,274,6.0,15.0,11,0.00,,,-99.99,FreeWX-Wi 1.02,2013-07-29 22:25:00,
2013-07-29 15:30:00,107.6,41.7,29.91,West,276,6.0,13.2,11,0.00,,,-99.99,FreeWX-Wi 1.02,2013-07-29 22:30:00,
2013-07-29 15:40:00,107.6,41.7,29.91,West,265,6.0,14.5,11,0.00,,,-99.99,FreeWX-Wi 1.02,2013-07-29 22:40:00,
2013-07-29 15:51:00,107.6,41.7,29.88,West,263,7.0,15.0,11,0.00,,,-99.99,FreeWX-Wi 1.02,2013-07-29 22:51:00,
2013-07-29 16:12:00,107.2,41.5,29.88,West,266,8.0,14.5,11,0.00,,,-99.99,FreeWX-Wi 1.02,2013-07-29 23:12:00,
2013-07-29 16:17:00,106.9,41.2,29.88,West,269,7.0,11.4,11,0.00,,,-99.99,FreeWX-Wi 1.02,2013-07-29 23:17:00,
2013-07-29 16:22:00,106.7,41.2,29.88,West,269,7.0,13.2,11,0.00,,,-99.99,FreeWX-Wi 1.02,2013-07-29 23:22:00,
2013-07-29 16:27:00,106.5,41.0,29.88,West,268,7.0,13.2,11,0.00,,,-99.99,FreeWX-Wi 1.02,2013-07-29 23:27:00,
2013-07-29 16:32:00,106.9,41.2,29.88,West,270,6.0,11.0,11,0.00,,,-99.99,FreeWX-Wi 1.02,2013-07-29 23:32:00,
2013-07-29 16:37:00,106.7,41.2,29.88,West,273,6.0,15.0,11,0.00,,,-99.99,FreeWX-Wi 1.02,2013-07-29 23:37:00,
2013-07-29 16:42:00,106.2,40.6,29.88,West,278,6.0,11.9,11,0.00,,,-99.99,FreeWX-Wi 1.02,2013-07-29 23:42:00,
2013-07-29 16:52:00,106.0,40.6,29.88,West,276,6.0,12.8,11,0.00,,,-99.99,FreeWX-Wi 1.02,2013-07-29 23:52:00,
2013-07-29 16:57:00,106.2,40.6,29.88,West,274,6.0,15.0,11,0.00,,,-99.99,FreeWX-Wi 1.02,2013-07-29 23:57:00,
2013-07-29 17:02:00,106.0,40.6,29.88,West,272,7.0,15.4,11,0.00,,,-99.99,FreeWX-Wi 1.02,2013-07-30 00:02:00,
2013-07-29 17:07:00,105.8,40.5,29.88,West,267,8.0,15.4,11,0.00,,,-99.99,FreeWX-Wi 1.02,2013-07-30 00:07:00,
2013-07-29 17:18:00,105.4,42.4,29.88,West,266,8.0,15.4,12,0.00,,,-99.99,FreeWX-Wi 1.02,2013-07-30 00:18:00,
2013-07-29 17:23:00,104.9,41.9,29.88,West,270,8.0,8.3,12,0.00,,,-99.99,FreeWX-Wi 1.02,2013-07-30 00:23:00,
2013-07-29 17:28:00,104.4,41.5,29.88,West,270,8.0,13.2,12,0.00,,,-99.99,FreeWX-Wi 1.02,2013-07-30 00:28:00,
2013-07-29 17:33:00,103.8,41.2,29.88,West,270,8.0,18.3,12,0.00,,,-99.99,FreeWX-Wi 1.02,2013-07-30 00:33:00,
2013-07-29 17:38:00,103.8,41.2,29.88,West,270,8.0,13.6,12,0.00,,,-99.99,FreeWX-Wi 1.02,2013-07-30 00:38:00,
2013-07-29 17:43:00,103.5,40.8,29.88,West,269,8.0,11.0,12,0.00,,,-99.99,FreeWX-Wi 1.02,2013-07-30 00:43:00,
2013-07-29 17:48:00,103.1,40.6,29.88,West,271,7.0,12.3,12,0.00,,,-99.99,FreeWX-Wi 1.02,2013-07-30 00:48:00,
2013-07-29 17:53:00,102.4,40.1,29.88,West,269,8.0,14.5,12,0.00,,,-99.99,FreeWX-Wi 1.02,2013-07-30 00:53:00,
2013-07-29 17:58:00,102.0,39.7,29.88,West,267,8.0,11.4,12,0.00,,,-99.99,FreeWX-Wi 1.02,2013-07-30 00:58:00,
2013-07-29 18:03:00,101.7,39.6,29.88,West,271,7.0,11.9,12,0.00,,,-99.99,FreeWX-Wi 1.02,2013-07-30 01:03:00,
2013-07-29 18:08:00,101.3,39.2,29.88,West,271,7.0,12.8,12,0.00,,,-99.99,FreeWX-Wi 1.02,2013-07-30 01:08:00,
2013-07-29 18:13:00,100.6,38.7,29.88,West,271,7.0,11.9,12,0.00,,,-99.99,FreeWX-Wi 1.02,2013-07-30 01:13:00,
2013-07-29 18:23:00,99.0,39.6,29.88,West,269,6.0,12.3,13,0.00,,,-99.99,FreeWX-Wi 1.02,2013-07-30 01:23:00,
2013-07-29 18:28:00,98.4,39.0,29.88,West,271,6.0,8.7,13,0.00,,,-99.99,FreeWX-Wi 1.02,2013-07-30 01:28:00,
2013-07-29 18:33:00,97.7,38.5,29.88,West,268,6.0,11.0,13,0.00,,,-99.99,FreeWX-Wi 1.02,2013-07-30 01:33:00,
2013-07-29 18:38:00,97.3,38.3,29.88,West,269,6.0,12.8,13,0.00,,,-99.99,FreeWX-Wi 1.02,2013-07-30 01:38:00,
2013-07-29 18:43:00,96.6,39.6,29.88,West,268,7.0,15.0,14,0.00,,,-99.99,FreeWX-Wi 1.02,2013-07-30 01:43:00,
2013-07-29 19:04:00,94.8,38.1,29.88,West,274,7.0,12.8,14,0.00,,,-99.99,FreeWX-Wi 1.02,2013-07-30 02:04:00,
2013-07-29 19:09:00,94.5,37.9,29.88,West,274,7.0,10.5,14,0.00,,,-99.99,FreeWX-Wi 1.02,2013-07-30 02:09:00,
2013-07-29 19:14:00,94.3,37.8,29.88,West,277,6.0,10.1,14,0.00,,,-99.99,FreeWX-Wi 1.02,2013-07-30 02:14:00,
2013-07-29 19:19:00,93.7,31.3,29.88,West,275,6.0,10.5,11,0.00,,,-99.99,FreeWX-Wi 1.02,2013-07-30 02:19:00,
2013-07-29 19:24:00,93.4,30.9,29.88,West,275,6.0,15.4,11,0.00,,,-99.99,FreeWX-Wi 1.02,2013-07-30 02:24:00,
2013-07-29 19:29:00,92.8,32.7,29.88,West,274,6.0,8.1,12,0.00,,,-99.99,FreeWX-Wi 1.02,2013-07-30 02:29:00,
2013-07-29 19:34:00,92.3,32.4,29.88,West,275,6.0,14.5,12,0.00,,,-99.99,FreeWX-Wi 1.02,2013-07-30 02:34:00,
2013-07-29 19:39:00,91.9,32.0,29.88,West,275,6.0,14.5,12,0.00,,,-99.99,FreeWX-Wi 1.02,2013-07-30 02:39:00,
2013-07-29 19:44:00,91.6,31.8,29.88,West,275,6.0,8.1,12,0.00,,,-99.99,FreeWX-Wi 1.02,2013-07-30 02:44:00,
2013-07-29 19:50:00,91.0,31.3,29.88,West,279,6.0,9.6,12,0.00,,,-99.99,FreeWX-Wi 1.02,2013-07-30 02:50:00,
2013-07-29 19:55:00,90.7,31.1,29.88,WNW,286,5.0,8.3,12,0.00,,,-99.99,FreeWX-Wi 1.02,2013-07-30 02:55:00,
2013-07-29 20:00:00,90.5,30.9,29.88,WNW,296,4.0,6.3,12,0.00,,,-99.99,FreeWX-Wi 1.02,2013-07-30 03:00:00,
2013-07-29 20:05:00,90.3,30.7,29.88,NW,308,4.0,8.1,12,0.00,,,-99.99,FreeWX-Wi 1.02,2013-07-30 03:05:00,
2013-07-29 20:10:00,89.8,30.4,29.88,NW,321,4.0,7.6,12,0.00,,,-99.99,FreeWX-Wi 1.02,2013-07-30 03:10:00,
2013-07-29 20:15:00,89.4,32.0,29.88,NNW,334,3.0,7.6,13,0.00,,,-99.99,FreeWX-Wi 1.02,2013-07-30 03:15:00,
2013-07-29 20:20:00,89.4,32.0,29.91,NNW,338,3.0,8.3,13,0.00,,,-99.99,FreeWX-Wi 1.02,2013-07-30 03:20:00,
2013-07-29 20:25:00,88.9,31.6,29.91,NNW,340,3.0,5.8,13,0.00,,,-99.99,FreeWX-Wi 1.02,2013-07-30 03:25:00,
2013-07-29 20:35:00,88.7,31.5,29.91,NNW,344,3.0,8.3,13,0.00,,,-99.99,FreeWX-Wi 1.02,2013-07-30 03:35:00,
2013-07-29 20:40:00,88.3,31.3,29.91,NNW,341,4.0,10.5,13,0.00,,,-99.99,FreeWX-Wi 1.02,2013-07-30 03:40:00,
2013-07-29 20:45:00,87.8,30.7,29.91,NNW,337,4.0,6.7,13,0.00,,,-99.99,FreeWX-Wi 1.02,2013-07-30 03:45:00,
2013-07-29 20:50:00,87.3,30.4,29.91,NNW,332,4.0,7.6,13,0.00,,,-99.99,FreeWX-Wi 1.02,2013-07-30 03:50:00,
2013-07-29 20:55:00,87.1,30.2,29.91,NNW,329,4.0,8.1,13,0.00,,,-99.99,FreeWX-Wi 1.02,2013-07-30 03:55:00,
2013-07-29 21:00:00,86.5,29.8,29.91,NW,319,4.0,7.6,13,0.00,,,-99.99,FreeWX-Wi 1.02,2013-07-30 04:00:00,
2013-07-29 21:05:00,86.4,29.7,29.91,NW,310,4.0,8.1,13,0.00,,,-99.99,FreeWX-Wi 1.02,2013-07-30 04:05:00,
2013-07-29 21:10:00,86.0,29.5,29.91,NW,307,4.0,8.7,13,0.00,,,-99.99,FreeWX-Wi 1.02,2013-07-30 04:10:00,
2013-07-29 21:15:00,85.6,29.1,29.91,WNW,303,4.0,7.2,13,0.00,,,-99.99,FreeWX-Wi 1.02,2013-07-30 04:15:00,
2013-07-29 21:20:00,85.5,28.9,29.94,WNW,298,4.0,8.3,13,0.00,,,-99.99,FreeWX-Wi 1.02,2013-07-30 04:20:00,
2013-07-29 21:25:00,85.3,28.9,29.94,WNW,298,4.0,5.8,13,0.00,,,-99.99,FreeWX-Wi 1.02,2013-07-30 04:25:00,
2013-07-29 21:30:00,84.9,28.6,29.94,NW,304,3.0,6.3,13,0.00,,,-99.99,FreeWX-Wi 1.02,2013-07-30 04:30:00,
2013-07-29 21:35:00,85.1,28.8,29.94,NW,308,3.0,8.1,13,0.00,,,-99.99,FreeWX-Wi 1.02,2013-07-30 04:35:00,
2013-07-29 21:41:00,85.3,28.9,29.94,NW,312,3.0,4.0,13,0.00,,,-99.99,FreeWX-Wi 1.02,2013-07-30 04:41:00,
2013-07-29 21:46:00,85.1,28.8,29.94,NW,313,2.0,7.6,13,0.00,,,-99.99,FreeWX-Wi 1.02,2013-07-30 04:46:00,
2013-07-29 21:51:00,84.9,28.6,29.94,NW,311,2.0,5.4,13,0.00,,,-99.99,FreeWX-Wi 1.02,2013-07-30 04:51:00,
2013-07-29 21:56:00,85.1,28.8,29.94,WNW,300,2.0,7.6,13,0.00,,,-99.99,FreeWX-Wi 1.02,2013-07-30 04:56:00,
2013-07-29 22:01:00,84.4,28.2,29.94,WNW,290,2.0,3.6,13,0.00,,,-99.99,FreeWX-Wi 1.02,2013-07-30 05:01:00,
2013-07-29 22:06:00,84.2,28.0,29.94,West,277,2.0,7.2,13,0.00,,,-99.99,FreeWX-Wi 1.02,2013-07-30 05:06:00,
2013-07-29 22:11:00,83.8,29.5,29.94,West,269,2.0,4.0,14,0.00,,,-99.99,FreeWX-Wi 1.02,2013-07-30 05:11:00,
2013-07-29 22:16:00,83.8,29.5,29.94,West,267,2.0,3.6,14,0.00,,,-99.99,FreeWX-Wi 1.02,2013-07-30 05:16:00,
2013-07-29 22:21:00,83.7,29.5,29.94,West,268,1.0,3.6,14,0.00,,,-99.99,FreeWX-Wi 1.02,2013-07-30 05:21:00,
2013-07-29 22:26:00,82.9,28.8,29.94,West,272,1.0,0.0,14,0.00,,,-99.99,FreeWX-Wi 1.02,2013-07-30 05:26:00,
2013-07-29 22:31:00,82.4,28.4,29.94,North,-999,0.0,0.0,14,0.00,,,-99.99,FreeWX-Wi 1.02,2013-07-30 05:31:00,
2013-07-29 22:36:00,81.9,28.0,29.94,North,-999,0.0,0.0,14,0.00,,,-99.99,FreeWX-Wi 1.02,2013-07-30 05:36:00,
2013-07-29 22:41:00,81.3,27.5,29.94,North,-999,0.0,0.0,14,0.00,,,-99.99,FreeWX-Wi 1.02,2013-07-30 05:41:00,
2013-07-29 22:46:00,81.0,27.3,29.94,North,-999,0.0,0.0,14,0.00,,,-99.99,FreeWX-Wi 1.02,2013-07-30 05:46:00,
2013-07-29 22:51:00,81.3,27.5,29.94,North,-999,0.0,2.2,14,0.00,,,-99.99,FreeWX-Wi 1.02,2013-07-30 05:51:00,
2013-07-29 22:56:00,81.1,27.5,29.94,North,-999,0.0,3.6,14,0.00,,,-99.99,FreeWX-Wi 1.02,2013-07-30 05:56:00,
2013-07-29 23:01:00,80.8,27.1,29.94,North,-999,0.0,0.0,14,0.00,,,-99.99,FreeWX-Wi 1.02,2013-07-30 06:01:00,
2013-07-29 23:06:00,80.6,27.0,29.94,North,-999,0.0,0.0,14,0.00,,,-99.99,FreeWX-Wi 1.02,2013-07-30 06:06:00,
2013-07-29 23:11:00,81.0,27.3,29.94,North,-999,0.0,0.0,14,0.00,,,-99.99,FreeWX-Wi 1.02,2013-07-30 06:11:00,
2013-07-29 23:16:00,80.6,27.0,29.94,North,-999,0.0,2.2,14,0.00,,,-99.99,FreeWX-Wi 1.02,2013-07-30 06:16:00,
2013-07-29 23:21:00,80.2,28.4,29.94,North,-999,0.0,0.0,15,0.00,,,-99.99,FreeWX-Wi 1.02,2013-07-30 06:21:00,
2013-07-29 23:26:00,80.1,28.2,29.94,North,-999,0.0,0.0,15,0.00,,,-99.99,FreeWX-Wi 1.02,2013-07-30 06:26:00,
2013-07-29 23:31:00,79.9,28.0,29.94,North,-999,0.0,0.0,15,0.00,,,-99.99,FreeWX-Wi 1.02,2013-07-30 06:31:00,
2013-07-29 23:36:00,79.3,27.7,29.94,North,-999,0.0,0.0,15,0.00,,,-99.99,FreeWX-Wi 1.02,2013-07-30 06:36:00,
2013-07-29 23:41:00,79.2,27.5,29.94,North,-999,0.0,5.4,15,0.00,,,-99.99,FreeWX-Wi 1.02,2013-07-30 06:41:00,
2013-07-29 23:46:00,79.0,27.3,29.94,North,-999,0.0,5.4,15,0.00,,,-99.99,FreeWX-Wi 1.02,2013-07-30 06:46:00,
2013-07-29 23:51:00,79.5,27.9,29.94,West,278,1.0,4.0,15,0.00,,,-99.99,FreeWX-Wi 1.02,2013-07-30 06:51:00,
2013-07-29 23:56:00,79.3,27.7,29.94,West,274,1.0,2.2,15,0.00,,,-99.99,FreeWX-Wi 1.02,2013-07-30 06:56:00,